Regional Weather Roundup
Issued by NWS Goodland, KS

Home | Current Version | Previous Version | Text Only | Print | Product List | Glossary Off
Versions: 1 2 3 4 5 6 7 8 9 10 11 12 13 14 15 16 17 18 19 20 21 22 23 24 25 26 27 28 29 30 31 32 33 34 35 36 37 38 39 40 41 42 43 44 45 46 47 48 49 50

000
ASUS43 KGLD 300359
RWRGLD

GOODLAND FORECAST AREA HOURLY WEATHER ROUNDUP
NATIONAL WEATHER SERVICE GOODLAND KS
1000 PM MDT MON MAY 29 2017

...OFFICIAL OBSERVATIONS...

CITY           SKY/WX    TMP DP  RH WIND       PRES   REMARKS
GOODLAND KS    PTCLDY    56  48  74 W8        30.16R
HILL CITY KS   PTCLDY    58  51  78 CALM      30.10R
IMPERIAL NEB   PTCLDY    58  40  51 NW5       30.14R
MCCOOK NEB     CLOUDY    59  42  53 CALM      30.11R
AKRON CO       CLEAR     51  45  79 SW8       30.22R
BURLINGTON CO  PTCLDY    51  48  89 SW9       30.20R
LIMON CO       CLEAR     45  45 100 NW3       30.25R
$$

...UNOFFICIAL OBSERVATIONS...

CITY           SKY/WX    TMP DP  RH WIND       PRES   REMARKS
NORTON KS      CLEAR     55  43  62 CALM      30.10R
SHARON SPRINGS   N/A     56  51  85 NW8         N/A
TRENTON NEB      N/A     62  32  32 CALM        N/A
KIT CARSON CO    N/A     50  46  85 CALM        N/A
YUMA CO        FAIR      50  41  71 SW7       30.20R
$$



USA.gov is the U.S. government's official web portal to all federal, state and local government web resources and services.